Previsão horária em Barmotino

Hoje, 23 Julho, Sexta-feira

Tempo Temperatura Precipitação Vento Pressão Humidade
00:00 +19°C° 0 mm 4 m/s 747 mmHg 71%
01:00 +19°C° 0 mm 3 m/s 747 mmHg 71%
02:00 +19°C° 0 mm 3 m/s 747 mmHg 72%
03:00 +19°C° 0 mm 3 m/s 746 mmHg 72%
04:00 +19°C° 0 mm 4 m/s 746 mmHg 70%
05:00 +19°C° 0 mm 4 m/s 746 mmHg 68%
06:00 +19°C° 0 mm 5 m/s 746 mmHg 67%
07:00 +21°C° 0 mm 5 m/s 746 mmHg 62%
08:00 +22°C° 0 mm 5 m/s 747 mmHg 58%
09:00 +23°C° 0 mm 4 m/s 747 mmHg 54%
10:00 +25°C° 0 mm 4 m/s 747 mmHg 49%
11:00 +26°C° 0 mm 4 m/s 747 mmHg 44%
12:00 +28°C° 0 mm 4 m/s 747 mmHg 39%
13:00 +28°C° 0 mm 4 m/s 747 mmHg 37%
14:00 +28°C° 0 mm 4 m/s 746 mmHg 35%
15:00 +28°C° 0 mm 5 m/s 746 mmHg 34%
16:00 +28°C° 0 mm 4 m/s 746 mmHg 36%
17:00 +27°C° 0 mm 4 m/s 747 mmHg 38%
18:00 +26°C° 0 mm 4 m/s 747 mmHg 40%
19:00 +25°C° 0 mm 4 m/s 747 mmHg 43%
20:00 +22°C° 0 mm 4 m/s 748 mmHg 45%
21:00 +21°C° 0 mm 4 m/s 748 mmHg 48%
22:00 +20°C° 0 mm 3 m/s 748 mmHg 49%
23:00 +19°C° 0 mm 3 m/s 748 mmHg 51%

Amanhã, 24 Julho, Sábado

Tempo Temperatura Precipitação Vento Pressão Humidade
00:00 +18°C° 0 mm 3 m/s 749 mmHg 53%
01:00 +18°C° 0 mm 3 m/s 749 mmHg 54%
02:00 +17°C° 0 mm 3 m/s 749 mmHg 54%
03:00 +17°C° 0 mm 2 m/s 749 mmHg 55%
04:00 +18°C° 0 mm 2 m/s 750 mmHg 54%
05:00 +19°C° 0 mm 2 m/s 750 mmHg 52%
06:00 +20°C° 0 mm 2 m/s 750 mmHg 51%
07:00 +23°C° 0 mm 2 m/s 750 mmHg 46%
08:00 +25°C° 0 mm 3 m/s 750 mmHg 41%
09:00 +26°C° 0 mm 3 m/s 750 mmHg 36%
10:00 +27°C° 0 mm 4 m/s 750 mmHg 34%
11:00 +28°C° 0 mm 4 m/s 750 mmHg 31%
12:00 +29°C° 0 mm 4 m/s 750 mmHg 29%
13:00 +29°C° 0 mm 5 m/s 751 mmHg 30%
14:00 +28°C° 0 mm 5 m/s 751 mmHg 32%
15:00 +28°C° 0 mm 6 m/s 751 mmHg 33%
16:00 +27°C° 0 mm 5 m/s 751 mmHg 36%
17:00 +27°C° 0 mm 4 m/s 751 mmHg 39%
18:00 +26°C° 0 mm 4 m/s 752 mmHg 41%
19:00 +25°C° 0 mm 3 m/s 752 mmHg 45%
20:00 +22°C° 0 mm 3 m/s 752 mmHg 48%
21:00 +21°C° 0 mm 2 m/s 753 mmHg 52%
22:00 +20°C° 0 mm 2 m/s 753 mmHg 53%
23:00 +20°C° 0 mm 3 m/s 754 mmHg 55%

Depois de amanhã, 25 Julho, Domingo

Tempo Temperatura Precipitação Vento Pressão Humidade
00:00 +19°C° 0 mm 3 m/s 754 mmHg 57%
01:00 +18°C° 0 mm 3 m/s 754 mmHg 59%
02:00 +18°C° 0 mm 3 m/s 755 mmHg 60%
03:00 +17°C° 0 mm 3 m/s 755 mmHg 62%
04:00 +17°C° 0 mm 3 m/s 755 mmHg 62%
05:00 +18°C° 0 mm 4 m/s 756 mmHg 61%
06:00 +19°C° 0 mm 4 m/s 757 mmHg 61%
07:00 +19°C° 0 mm 4 m/s 757 mmHg 57%
08:00 +20°C° 0 mm 4 m/s 757 mmHg 52%
09:00 +21°C° 0 mm 4 m/s 757 mmHg 48%
10:00 +23°C° 0 mm 4 m/s 758 mmHg 43%
11:00 +25°C° 0 mm 4 m/s 758 mmHg 38%
12:00 +27°C° 0 mm 3 m/s 758 mmHg 32%
13:00 +27°C° 0 mm 3 m/s 758 mmHg 30%
14:00 +28°C° 0 mm 3 m/s 758 mmHg 29%
15:00 +28°C° 0 mm 3 m/s 758 mmHg 27%
16:00 +28°C° 0 mm 3 m/s 758 mmHg 27%
17:00 +27°C° 0 mm 3 m/s 758 mmHg 28%
18:00 +27°C° 0 mm 3 m/s 758 mmHg 29%
19:00 +25°C° 0 mm 3 m/s 759 mmHg 33%
20:00 +22°C° 0 mm 3 m/s 759 mmHg 38%
21:00 +20°C° 0 mm 3 m/s 759 mmHg 42%
22:00 +19°C° 0 mm 4 m/s 760 mmHg 42%
23:00 +18°C° 0 mm 4 m/s 760 mmHg 42%

26 Julho, Segunda-feira

Tempo Temperatura Precipitação Vento Pressão Humidade
00:00 +17°C° 0 mm 4 m/s 760 mmHg 42%
01:00 +17°C° 0 mm 3 m/s 761 mmHg 42%
02:00 +17°C° 0 mm 3 m/s 761 mmHg 41%
03:00 +17°C° 0 mm 3 m/s 761 mmHg 40%
04:00 +17°C° 0 mm 3 m/s 761 mmHg 40%
05:00 +18°C° 0 mm 3 m/s 761 mmHg 40%
06:00 +18°C° 0 mm 3 m/s 762 mmHg 40%
07:00 +20°C° 0 mm 3 m/s 762 mmHg 36%
08:00 +22°C° 0 mm 3 m/s 762 mmHg 33%
09:00 +24°C° 0 mm 3 m/s 762 mmHg 29%
10:00 +25°C° 0 mm 3 m/s 762 mmHg 27%
11:00 +26°C° 0 mm 3 m/s 762 mmHg 26%
12:00 +27°C° 0 mm 3 m/s 762 mmHg 25%
13:00 +27°C° 0 mm 3 m/s 761 mmHg 24%
14:00 +27°C° 0 mm 3 m/s 761 mmHg 24%
15:00 +28°C° 0 mm 3 m/s 761 mmHg 23%
16:00 +27°C° 0 mm 3 m/s 761 mmHg 24%
17:00 +27°C° 0 mm 3 m/s 761 mmHg 25%
18:00 +27°C° 0 mm 3 m/s 760 mmHg 26%
19:00 +25°C° 0 mm 3 m/s 760 mmHg 30%
20:00 +22°C° 0 mm 3 m/s 761 mmHg 35%
21:00 +20°C° 0 mm 3 m/s 761 mmHg 39%
22:00 +20°C° 0 mm 3 m/s 761 mmHg 40%
23:00 +19°C° 0 mm 3 m/s 761 mmHg 42%

27 Julho, Terça-feira

Tempo Temperatura Precipitação Vento Pressão Humidade
00:00 +18°C° 0 mm 3 m/s 760 mmHg 44%
01:00 +18°C° 0 mm 3 m/s 760 mmHg 44%
02:00 +17°C° 0 mm 3 m/s 760 mmHg 45%
03:00 +17°C° 0 mm 3 m/s 760 mmHg 45%
04:00 +18°C° 0 mm 3 m/s 760 mmHg 44%
05:00 +18°C° 0 mm 2 m/s 761 mmHg 44%
06:00 +19°C° 0 mm 2 m/s 761 mmHg 43%
07:00 +21°C° 0 mm 3 m/s 761 mmHg 38%
08:00 +24°C° 0 mm 3 m/s 760 mmHg 34%
09:00 +27°C° 0 mm 3 m/s 760 mmHg 29%
10:00 +27°C° 0 mm 4 m/s 760 mmHg 28%
11:00 +28°C° 0 mm 4 m/s 760 mmHg 26%
12:00 +29°C° 0 mm 4 m/s 759 mmHg 25%
13:00 +29°C° 0 mm 4 m/s 759 mmHg 25%
14:00 +29°C° 0 mm 5 m/s 758 mmHg 25%
15:00 +30°C° 0 mm 5 m/s 758 mmHg 25%
16:00 +29°C° 0 mm 5 m/s 758 mmHg 26%
17:00 +29°C° 0 mm 5 m/s 758 mmHg 27%
18:00 +28°C° 0 mm 5 m/s 758 mmHg 29%
19:00 +27°C° 0 mm 4 m/s 758 mmHg 32%
20:00 +25°C° 0 mm 4 m/s 758 mmHg 36%
21:00 +24°C° 0 mm 3 m/s 758 mmHg 39%
22:00 +22°C° 0 mm 3 m/s 758 mmHg 42%
23:00 +21°C° 0 mm 3 m/s 758 mmHg 44%

28 Julho, Quarta-feira

Tempo Temperatura Precipitação Vento Pressão Humidade
00:00 +20°C° 0 mm 3 m/s 758 mmHg 47%
01:00 +20°C° 0 mm 3 m/s 758 mmHg 49%
02:00 +19°C° 0 mm 3 m/s 758 mmHg 52%
03:00 +18°C° 0 mm 3 m/s 758 mmHg 55%
04:00 +19°C° 0 mm 3 m/s 758 mmHg 54%
05:00 +20°C° 0 mm 3 m/s 758 mmHg 54%
06:00 +20°C° 0 mm 3 m/s 758 mmHg 53%
07:00 +22°C° 0 mm 3 m/s 758 mmHg 49%
08:00 +25°C° 0 mm 3 m/s 758 mmHg 44%
09:00 +27°C° 0 mm 3 m/s 757 mmHg 40%
10:00 +28°C° 0 mm 3 m/s 757 mmHg 36%
11:00 +29°C° 0 mm 4 m/s 757 mmHg 33%
12:00 +30°C° 0 mm 4 m/s 757 mmHg 30%
13:00 +30°C° 0 mm 5 m/s 756 mmHg 30%
14:00 +30°C° 0 mm 5 m/s 756 mmHg 30%
15:00 +30°C° 0 mm 5 m/s 756 mmHg 30%
16:00 +30°C° 0 mm 4 m/s 756 mmHg 30%
17:00 +30°C° 0 mm 3 m/s 756 mmHg 30%
18:00 +30°C° 0 mm 2 m/s 756 mmHg 30%
19:00 +28°C° 0 mm 2 m/s 756 mmHg 33%
20:00 +27°C° 0 mm 2 m/s 756 mmHg 35%
21:00 +25°C° 0 mm 2 m/s 756 mmHg 38%
22:00 +25°C° 0 mm 2 m/s 756 mmHg 39%
23:00 +24°C° 0 mm 2 m/s 756 mmHg 40%
Mostrar mais